Location: Hilde
(52.9479°N, 6.4449°E)
Time: 16:17:45
(UTC+00:00)

Cosmos 841 Rocket - Pass Details

Date: 15 May 2026
Orbit: 742 x 767 km, 74.0° (Epoch: 10 June)

Event Time Altitude Azimuth Distance (km) Brightness Sun altitude
Exits shadow 23:27:23 23° 222° (SW) 1,591 4.7 -18.0°
Maximum altitude 23:30:39 65° 299° (WNW) 840 3.8 -18.0°
Drops below altitude 10° 23:35:53 10° 22° (NNE) 2,316 7.1 -18.0°
Sets 23:38:18 0° 25° (NNE) 3,248 8.0 -18.0°
